Back to catalog

STARLINK-34032

AliveCommunicationsVLEO
NORAD 63853·PAYLOAD·🇺🇸 United States

Launched May 7, 2025 from Cape Canaveral Space Force Station

Loading…

Next Passes (next 24 hours)

TLE

FreshSource: CelesTrak SupGP

Epoch: Sep 14, 2026, 22:36 UTC

1 63853C 25093T   26257.94215278  .00057184  00000+0  20710-2 0  2577
2 63853  43.0027  88.9280 0001020 292.8392 214.5905 15.27554193    15

Track STARLINK-34032 in real time with AllMySat

Download on the App Store